Key West, FL

10:33 PM EDT on September 24, 2016 (GMT -0400)
Key West International

Weather History for KEYW - February, 2015

Change the Weather History Date:

Friday, February 13, 2015

  Actual Average Record
Temperature  
Mean Temperature 66 °F 71 °F  
Max Temperature 71 °F 76 °F 84 °F (1994)
Min Temperature 61 °F 66 °F 48 °F (1955)
Degree Days  
Heating Degree Days 0 1  
Month to date heating degree days 1 13  
Since 1 July heating degree days 7 64  
Cooling Degree Days 1 6  
Month to date cooling degree days 52 78  
Year to date cooling degree days 283 243  
Growing Degree Days 16 (Base 50)    
Moisture  
Dew Point 58 °F    
Average Humidity 75    
Maximum Humidity 84    
Minimum Humidity 66    
Precipitation  
Precipitation 0.00 in 0.05 in 2.84 in (1947)
Month to date precipitation 1.00 0.66  
Year to date precipitation 2.03 2.70  
Snow  
Snow 0.00 in - - ()
Month to date snowfall 0.0  
Since 1 July snowfall 0.0  
Snow Depth 0.00 in    
Sea Level Pressure  
Sea Level Pressure 30.15 in    
Wind  
Wind Speed 11 mph (NNW)    
Max Wind Speed 18 mph    
Max Gust Speed 24 mph    
Visibility 10 miles    
Events      
T = Trace of Precipitation, MM = Missing Value Source: NWS Daily Summary

Daily Weather History Graph

Daily Weather History Graph

Search for Another Location

Airport or City:

Trip Planner

Search our weather history database for the weather conditions in past years. The results will help you decide how hot, cold, wet, or windy it might be!

Date:

Astronomy

Feb. 13, 2015 Rise Set
Actual Time 7:02 AM EST 6:20 PM EST
Civil Twilight 6:39 AM EST 6:43 PM EST
Nautical Twilight 6:12 AM EST 7:10 PM EST
Astronomical Twilight 5:45 AM EST 7:37 PM EST
Moon 1:55 AM EST (2/13) 1:11 PM EST (2/13)
Length of Visible Light 12h 04m
Length of Day
11h 18m
Waning Crescent, 34% of the Moon is Illuminated
Feb 13
Waning Crescent
Feb 18
New
Feb 25
First Quarter
Mar 5
Full
Mar 13
Last Quarter

Hourly Weather History & Observations

Time (EST) Temp. Dew Point Humidity Pressure Visibility Wind Dir Wind Speed Gust Speed Precip Events Conditions
12:53 AM 64.0 °F 55.9 °F 75% 30.09 in 10.0 mi NNW 6.9 mph - N/A   Clear
1:53 AM 64.0 °F 55.9 °F 75% 30.09 in 10.0 mi NNW 6.9 mph - N/A   Clear
2:53 AM 64.4 °F 57.2 °F 77% 30.08 in 10.0 mi NNW 3.5 mph - N/A   Clear
3:53 AM 64.0 °F 57.9 °F 80% 30.09 in 10.0 mi NNW 6.9 mph - N/A   Clear
4:53 AM 64.0 °F 57.9 °F 80% 30.10 in 10.0 mi NNW 9.2 mph - N/A   Clear
5:53 AM 64.9 °F 59.0 °F 81% 30.11 in 10.0 mi NNW 9.2 mph - N/A   Partly Cloudy
6:53 AM 64.9 °F 57.9 °F 78% 30.13 in 10.0 mi NNW 9.2 mph - N/A   Partly Cloudy
7:53 AM 66.9 °F 57.9 °F 73% 30.16 in 10.0 mi NNW 8.1 mph - N/A   Scattered Clouds
8:53 AM 69.1 °F 57.9 °F 68% 30.17 in 10.0 mi North 9.2 mph - N/A   Scattered Clouds
9:53 AM 68.0 °F 60.1 °F 76% 30.19 in 10.0 mi NNE 10.4 mph - N/A   Scattered Clouds
10:01 AM 68.0 °F 60.1 °F 76% 30.19 in 10.0 mi North 10.4 mph - N/A   Scattered Clouds
10:53 AM 70.0 °F 59.0 °F 68% 30.19 in 10.0 mi North 10.4 mph - N/A   Partly Cloudy
11:53 AM 70.0 °F 60.1 °F 71% 30.18 in 10.0 mi North 9.2 mph - N/A   Clear
12:53 PM 71.1 °F 59.0 °F 66% 30.17 in 10.0 mi NNW 6.9 mph - N/A   Clear
1:53 PM 70.0 °F 60.1 °F 71% 30.15 in 10.0 mi NW 9.2 mph - N/A   Scattered Clouds
2:12 PM 70.0 °F 60.1 °F 71% 30.15 in 10.0 mi NNW 10.4 mph - N/A   Mostly Cloudy
2:53 PM 69.1 °F 60.1 °F 73% 30.14 in 10.0 mi NNW 13.8 mph - N/A   Mostly Cloudy
3:18 PM 69.1 °F 60.1 °F 73% 30.13 in 10.0 mi NNW 12.7 mph - N/A   Scattered Clouds
3:53 PM 68.0 °F 60.8 °F 78% 30.13 in 10.0 mi NNW 10.4 mph - N/A   Scattered Clouds
4:02 PM 68.0 °F 60.1 °F 76% 30.13 in 10.0 mi NW 11.5 mph - N/A   Mostly Cloudy
4:53 PM 66.9 °F 57.9 °F 73% 30.14 in 10.0 mi NNW 13.8 mph 23.0 mph N/A   Mostly Cloudy
5:07 PM 66.2 °F 57.2 °F 73% 30.14 in 10.0 mi NNW 13.8 mph - N/A   Scattered Clouds
5:53 PM 64.9 °F 55.9 °F 73% 30.15 in 10.0 mi NNW 15.0 mph 21.9 mph N/A   Clear
6:53 PM 64.0 °F 55.9 °F 75% 30.17 in 10.0 mi NW 13.8 mph - N/A   Clear
7:53 PM 63.0 °F 55.0 °F 75% 30.17 in 10.0 mi NNW 17.3 mph - N/A   Clear
8:53 PM 63.0 °F 55.0 °F 75% 30.18 in 10.0 mi NW 13.8 mph - N/A   Clear
9:53 PM 63.0 °F 54.0 °F 72% 30.19 in 10.0 mi NNW 13.8 mph - N/A   Partly Cloudy
10:53 PM 62.1 °F 54.0 °F 75% 30.19 in 10.0 mi NNW 13.8 mph - N/A   Partly Cloudy
11:53 PM 62.1 °F 53.1 °F 72% 30.17 in 10.0 mi North 13.8 mph - N/A   Clear